Theta_e
307 303 298 298 295 293 293 292 292 291 291 291 291 291 291 291 291 290 289 288 288 290
299 296 294 292 292 291 290 290 289 289 288 289 289 289 289 289 289 288 287 287 287 287
295 293 291 290 289 288 288 288 287 286 287 287 287 287 287 287 288 286 286 287 285 285
291 289 288 288 287 287 287 286 286 285 285 285 285 285 285 286 286 285 284 284 284 284
288 287 286 285 285 286 285 285 285 284 284 284 284 284 284 284 284 283 283 283 283 283
286 285 284 284 284 285 285 284 284 283 282 282 283 283 284 284 283 283 283 284 283 283
284 284 284 283 284 283 283 282 281 281 281 282 282 283 283 283 282 282 283 284 284 284
284 283 283 282 282 282 281 281 281 280 280 281 281 284 283 282 282 282 282 284 284 284
283 282 282 281 281 281 280 279 280 279 279 279 281 285 286 284 282 282 282 282 283 284
282 281 281 280 279 279 278 279 278 278 279 278 279 285 285 285 282 281 281 281 282 282
281 280 278 278 278 277 277 277 277 277 278 278 279 283 284 285 282 281 281 281 281 281
279 278 277 275 276 276 276 276 276 277 274 273 275 282 283 283 280 281 281 281 283 281
278 276 275 276 275 275 274 276 276 276 273 272 270 279 282 283 280 273 279 280 283 283
276 275 276 275 274 273 273 274 272 272 272 270 272 274 281 283 280 280 278 281 281 282
Wind_Speed
12 7 7 7 5 5 4 4 4 5 6 6 6 6 6 4 4 5 5 6 5 2
11 11 10 9 7 6 5 4 6 6 6 6 6 6 6 4 5 5 4 4 5 3
12 11 10 8 9 7 6 5 6 6 6 6 6 6 6 4 4 5 4 3 5 4
11 10 9 9 6 6 6 6 6 6 6 6 6 5 5 5 5 5 4 3 4 5
11 10 9 8 6 6 6 5 6 6 6 5 5 5 5 5 4 5 6 6 6 7
10 10 9 8 7 6 6 6 6 5 5 5 4 5 5 5 5 5 4 7 8 8
8 8 7 7 6 6 5 6 5 5 5 4 5 4 4 4 5 4 4 6 5 6
7 7 7 7 6 5 5 5 5 5 5 4 4 2 4 4 3 3 3 4 4 3
8 8 7 6 6 5 5 5 5 5 5 5 2 4 4 4 3 2 1 2 3 4
8 8 7 6 6 5 5 4 5 4 4 4 3 4 3 2 1 2 3 4 4 5
8 8 7 7 6 5 4 4 4 4 3 3 2 3 2 3 1 3 4 4 5 4
9 9 7 7 6 4 4 2 2 3 3 3 2 2 2 2 2 3 4 4 4 4
9 8 8 7 6 3 2 3 2 3 3 1 2 3 2 0 2 2 3 3 4 7
8 8 6 6 3 4 3 4 3 2 2 1 3 4 2 3 2 2 2 2 3 3
Wind_Direction
120 127 107 119 115 102 100 93 77 73 68 61 53 48 52 57 57 58 44 37 20 7
118 112 118 111 110 109 109 103 89 75 72 58 55 49 51 57 50 53 36 27 17 6
113 112 113 115 114 109 105 103 96 82 73 67 58 47 52 51 36 40 18 20 15 7
111 112 108 110 109 114 110 104 98 95 87 71 64 50 60 54 38 33 18 19 24 10
117 117 111 108 112 114 109 97 102 93 86 77 67 63 61 51 31 26 16 14 20 14
127 123 122 122 121 117 114 100 83 89 93 87 81 75 55 50 34 29 43 27 18 7
130 123 119 116 114 111 115 112 111 99 92 81 88 73 63 55 46 34 38 24 14 359
125 116 119 120 123 120 112 113 117 119 99 86 95 79 74 72 48 36 30 18 359 320
133 129 126 128 133 125 125 128 122 111 111 95 95 72 54 61 50 24 343 299 289 280
142 143 141 138 136 139 142 131 121 114 105 98 110 68 57 43 128 291 292 287 289 304
154 148 147 146 150 145 140 149 144 99 83 92 80 42 354 352 255 279 300 306 296 295
161 156 152 155 156 149 146 152 151 133 99 86 25 336 334 34 359 314 283 277 295 330
156 153 158 155 155 137 161 150 137 134 108 143 242 302 299 34 222 266 265 294 346 312
145 153 149 140 125 143 136 126 127 102 23 288 240 275 293 321 184 283 280 323 313 290